Flag for Portugal Weather past 2 weeks in Beja, Portugal

Now
45 °F

Passing clouds.


Feels Like: 39 °F
Forecast: N/A
Wind: 12 mph from Northwest

Location: Beja Airport

Current Time: Dec 28, 2014 at 11:52:02 PM

Latest Report: Dec 28, 2014 at 11:00 PM


Visibility: N/A

Pressure: 30.27 "Hg

Humidity: 93%

Dew point: 43 °F

Location of BejaLocation

Historic Weather in Beja — Graph

°F

Beja temperature yesterday

Maximum temperature yesterday: 52 °F (at 4:00 PM)
Minimum temperature yesterday: 39 °F (at 3:00 AM)
Average temperature yesterday: 44 °F

Past Weeks' High & Low Weather Summary

 TemperatureHumidityPressure
High61 °F (Dec 16, 1:00 PM)100% (Dec 13, 10:00 PM)30.54 "Hg (Dec 13, 10:00 PM)
Low36 °F (Dec 26, 8:00 AM)55% (Dec 26, 3:00 PM)29.68 "Hg (Dec 14, 2:00 AM)
Average48 °F93%30.32 "Hg
* Reported Dec 13 10:00 PM — Dec 28 10:00 PM, Beja, Weather by CustomWeather, © 2014

Note: Actual official high and low records may vary slightly from our data, if they occured in-between our weather recording intervals... More about our weather records

Advertising

Beja weather history for previous 24 hours

 ConditionsComfort  
Time TempWeatherWind HumidityBarometerVisibility
10:00 PM
Dec 28
46 °FClear.13 mph87%30.27 "Hg10 mi
9:00 PM48 °FClear.13 mph87%30.27 "Hg10 mi
8:00 PM52 °FPassing clouds.18 mph94%30.24 "HgN/A
7:00 PM54 °FPassing clouds.13 mph94%30.24 "HgN/A
6:00 PM54 °FPassing clouds.9 mph100%30.24 "HgN/A
5:00 PM55 °FScattered clouds.12 mph94%30.21 "HgN/A
4:00 PM55 °FBroken clouds.14 mph100%30.21 "HgN/A
3:00 PM55 °FDrizzle. Partly sunny.13 mph94%30.21 "Hg3 mi
2:00 PM57 °FBroken clouds.15 mph82%30.21 "HgN/A
1:00 PM55 °FPartly sunny.16 mph94%30.24 "HgN/A
12:00 PM54 °FPartly sunny.14 mph100%30.27 "HgN/A
11:00 AM50 °FPartly sunny.12 mph100%30.30 "HgN/A
10:00 AM50 °FScattered clouds.10 mph100%30.30 "Hg5 mi
9:00 AM46 °FCool.10 mph100%30.27 "Hg4 mi
8:00 AM45 °FFog.7 mph100%30.27 "Hg0 mi
7:00 AM45 °FFog.9 mph100%30.27 "Hg0 mi
6:00 AM45 °FFog.12 mph100%30.27 "Hg0 mi
5:00 AM45 °FFog.12 mph100%30.27 "Hg0 mi
4:00 AM45 °FFog.9 mph100%30.27 "Hg0 mi
3:00 AM45 °FFog.8 mph100%30.30 "Hg0 mi
2:00 AM45 °FFog.9 mph100%30.30 "Hg0 mi
1:00 AM45 °FFog.8 mph100%30.30 "Hg0 mi
12:00 AM45 °FLight fog.9 mph100%30.33 "Hg6 mi
11:00 PM
Dec 27
43 °FLight fog.7 mph100%30.33 "Hg6 mi
Weather by CustomWeather, © 2014

See weather overviewHow to use our weather pages